Poplar Bluff, MO

10:58 PM CDT on August 18, 2019 (GMT -0500)
Poplar Bluff Municipal

Weather History for KPOF - July, 2019

Change the Weather History Date:

Tuesday, July 16, 2019

  Actual Average Record
Temperature  
Mean Temperature 78 °F 80 °F  
Max Temperature 82 °F 90 °F 107 °F (1980)
Min Temperature 73 °F 70 °F 51 °F (1930)
Degree Days  
Heating Degree Days 0 0  
Month to date heating degree days 0 0  
Since 1 June heating degree days 0 2  
Since 1 July heating degree days 0 0  
Cooling Degree Days 13 15  
Month to date cooling degree days 256 234  
Year to date cooling degree days 777 734  
Since 1 June cooling degree days 563 570  
Growing Degree Days 28 (Base 50)    
Moisture  
Dew Point 75 °F    
Average Humidity 93    
Maximum Humidity 100    
Minimum Humidity 85    
Precipitation  
Precipitation 0.79 in 0.14 in 1.84 in (1966)
Month to date precipitation 4.80 1.79  
Year to date precipitation 47.29 25.65  
Sea Level Pressure  
Sea Level Pressure 29.91 in    
Wind  
Wind Speed 9 mph (SSW)    
Max Wind Speed 21 mph    
Max Gust Speed 31 mph    
Visibility 8 miles    
Events Rain    
T = Trace of Precipitation, MM = Missing Value Source: NWS Daily Summary

Daily Weather History Graph

Daily Weather History Graph

Search for Another Location

Airport or City:

Astronomy

Jul. 16, 2019 Rise Set
Actual Time 5:54 AM CDT 8:19 PM CDT
Civil Twilight 5:24 AM CDT 8:49 PM CDT
Nautical Twilight 4:48 AM CDT 9:26 PM CDT
Astronomical Twilight 4:07 AM CDT 10:06 PM CDT
Moon 8:25 PM CDT (7/16) 5:33 AM CDT (7/16)
Length of Visible Light 15h 24m
Length of Day
14h 25m
Full, 100% of the Moon is Illuminated
Jul 16
Full
Jul 16
Full
Jul 24
Last Quarter
Jul 31
New
Aug 7
First Quarter

Hourly Weather History & Observations

Time (CDT) Temp. Heat Index Dew Point Humidity Pressure Visibility Wind Dir Wind Speed Gust Speed Precip Events Conditions
12:53 AM 73.9 °F - 73.0 °F 97% 29.89 in 10.0 mi South 8.1 mph - N/A   Overcast
1:01 AM 73.9 °F - 73.0 °F 97% 29.90 in 10.0 mi South 9.2 mph - N/A   Overcast
1:27 AM 73.9 °F - 73.0 °F 97% 29.90 in 10.0 mi South 8.1 mph - N/A   Overcast
1:41 AM 73.9 °F - 73.0 °F 97% 29.90 in 10.0 mi South 6.9 mph - N/A   Overcast
1:53 AM 73.9 °F - 73.0 °F 97% 29.88 in 10.0 mi South 9.2 mph - N/A   Overcast
2:23 AM 73.9 °F - 73.0 °F 97% 29.89 in 5.0 mi South 8.1 mph - 0.00 in Rain Light Rain
2:40 AM 73.9 °F - 73.0 °F 97% 29.88 in 10.0 mi South 8.1 mph - 0.00 in   Overcast
2:53 AM 73.9 °F - 73.0 °F 97% 29.87 in 10.0 mi South 5.8 mph - 0.00 in   Overcast
3:32 AM 73.9 °F - 73.0 °F 97% 29.88 in 9.0 mi South 6.9 mph - N/A   Overcast
4:14 AM 73.9 °F - 73.9 °F 100% 29.88 in 5.0 mi South 8.1 mph - 0.01 in Rain Light Rain
4:30 AM 73.0 °F - 73.0 °F 100% 29.88 in 4.0 mi South 9.2 mph - 0.02 in Rain Light Rain
4:53 AM 73.9 °F - 73.9 °F 100% 29.87 in 10.0 mi South 8.1 mph - 0.02 in   Overcast
5:53 AM 73.9 °F - 73.9 °F 100% 29.88 in 10.0 mi South 9.2 mph - 0.01 in   Overcast
6:27 AM 73.9 °F - 73.9 °F 100% 29.90 in 2.5 mi South 11.5 mph - 0.02 in Rain Light Rain
6:31 AM 73.9 °F - 73.9 °F 100% 29.90 in 1.5 mi South 16.1 mph 23.0 mph 0.03 in Rain Rain
6:51 AM 73.4 °F - 73.4 °F 100% 29.90 in 0.8 mi South 9.2 mph - 0.38 in Rain Heavy Rain
6:53 AM 73.9 °F - 73.9 °F 100% 29.88 in 1.0 mi South 10.4 mph - 0.39 in Rain Heavy Rain
7:00 AM 73.9 °F - 73.9 °F 100% 29.90 in 1.5 mi South 10.4 mph - 0.05 in Rain Rain
7:11 AM 73.9 °F - 73.9 °F 100% 29.90 in 2.5 mi South 11.5 mph - 0.09 in Rain Rain
7:18 AM 73.9 °F - 73.9 °F 100% 29.90 in 2.5 mi South 10.4 mph - 0.12 in Rain Rain
7:25 AM 73.9 °F - 73.9 °F 100% 29.91 in 3.0 mi South 10.4 mph - 0.15 in Rain Rain
7:45 AM 73.9 °F - 73.9 °F 100% 29.91 in 2.5 mi South 11.5 mph - 0.22 in Rain Rain
7:53 AM 73.9 °F - 73.9 °F 100% 29.90 in 4.0 mi South 9.2 mph - 0.23 in Rain Light Rain
8:53 AM 75.0 °F - 75.0 °F 100% 29.90 in 10.0 mi SSW 10.4 mph - 0.01 in   Overcast
9:18 AM 75.9 °F - 75.0 °F 97% 29.92 in 10.0 mi SSW 9.2 mph - N/A   Overcast
9:25 AM 75.9 °F - 75.0 °F 97% 29.93 in 10.0 mi SSW 10.4 mph - N/A   Overcast
9:30 AM 75.9 °F - 75.0 °F 97% 29.93 in 10.0 mi SW 11.5 mph - N/A   Overcast
9:53 AM 77.0 °F - 75.0 °F 94% 29.91 in 10.0 mi SW 9.2 mph - N/A   Overcast
10:10 AM 78.1 °F - 75.0 °F 90% 29.93 in 10.0 mi SW 13.8 mph - N/A   Overcast
10:23 AM 78.1 °F - 75.0 °F 90% 29.93 in 10.0 mi SW 13.8 mph 19.6 mph N/A   Overcast
10:37 AM 78.1 °F - 75.0 °F 90% 29.94 in 10.0 mi SSW 10.4 mph - N/A   Overcast
10:53 AM 79.0 °F - 75.9 °F 90% 29.93 in 10.0 mi SW 10.4 mph - N/A   Mostly Cloudy
11:09 AM 80.1 °F 85.1 °F 75.0 °F 85% 29.93 in 10.0 mi SSW 9.2 mph - N/A   Mostly Cloudy
11:20 AM 79.0 °F - 75.0 °F 88% 29.94 in 10.0 mi SW 9.2 mph - N/A   Overcast
11:29 AM 80.1 °F 85.1 °F 75.0 °F 85% 29.93 in 10.0 mi SW 10.4 mph - N/A   Mostly Cloudy
11:53 AM 80.1 °F 85.1 °F 75.0 °F 85% 29.92 in 10.0 mi WSW 10.4 mph - N/A   Mostly Cloudy
12:02 PM 80.1 °F 85.1 °F 75.0 °F 85% 29.93 in 10.0 mi WSW 10.4 mph - N/A   Mostly Cloudy
12:09 PM 80.1 °F 85.1 °F 75.0 °F 85% 29.93 in 10.0 mi SW 8.1 mph - N/A   Mostly Cloudy
12:53 PM 75.0 °F - 73.9 °F 96% 29.93 in 5.0 mi West 5.8 mph - 0.01 in Rain Light Rain
1:03 PM 75.0 °F - 75.0 °F 100% 29.93 in 3.0 mi WSW 4.6 mph - 0.01 in Rain Light Rain
1:53 PM 81.0 °F 87.9 °F 77.0 °F 88% 29.91 in 10.0 mi SW 8.1 mph - 0.01 in   Overcast
2:16 PM 82.0 °F 89.4 °F 75.9 °F 82% 29.91 in 10.0 mi SSW 12.7 mph - N/A   Overcast
2:39 PM 78.1 °F - 75.9 °F 93% 29.91 in 10.0 mi SW 9.2 mph - 0.01 in Rain Light Rain
2:49 PM 78.8 °F - 75.2 °F 89% 29.91 in 1.8 mi SSW 11.5 mph 19.6 mph 0.03 in Rain Heavy Rain
2:53 PM 77.0 °F - 75.9 °F 96% 29.90 in 1.5 mi SW 8.1 mph 19.6 mph 0.11 in Rain Rain
2:57 PM 77.0 °F - 75.9 °F 96% 29.91 in 3.0 mi SW 11.5 mph 19.6 mph 0.00 in Rain Light Rain
3:53 PM 80.1 °F 85.8 °F 77.0 °F 90% 29.89 in 10.0 mi SSW 10.4 mph - 0.00 in   Overcast
4:53 PM 77.0 °F - 75.0 °F 94% 29.88 in 8.0 mi SW 13.8 mph - 0.00 in Rain Light Rain
5:53 PM 79.0 °F - 77.0 °F 94% 29.88 in 10.0 mi SSW 8.1 mph - 0.00 in   Mostly Cloudy
6:53 PM 81.0 °F 87.3 °F 75.9 °F 85% 29.88 in 10.0 mi SSW 11.5 mph - 0.00 in   Mostly Cloudy
7:53 PM 80.1 °F 85.4 °F 75.9 °F 87% 29.89 in 10.0 mi SSW 9.2 mph - N/A   Mostly Cloudy
8:53 PM 79.0 °F - 77.0 °F 94% 29.91 in 10.0 mi South 5.8 mph - N/A   Overcast
9:04 PM 79.0 °F - 77.0 °F 94% 29.92 in 10.0 mi South 6.9 mph - N/A   Overcast
9:22 PM 79.0 °F - 77.0 °F 94% 29.93 in 10.0 mi SSW 6.9 mph - N/A   Overcast
9:53 PM 78.1 °F - 77.0 °F 96% 29.93 in 10.0 mi SSW 6.9 mph - N/A   Overcast
10:53 PM 78.1 °F - 77.0 °F 96% 29.94 in 10.0 mi SSW 5.8 mph - N/A   Overcast
11:53 PM 77.0 °F - 77.0 °F 100% 29.93 in 10.0 mi SW 5.8 mph - N/A   Partly Cloudy